NOAA 12 DEB

Satellite information

Favourite Embed

Satellite Type and Status

DEBRISIN ORBIT

Key statistics

Satellite NOAA 12 DEB at a glance.

Uptime

12474

Days in orbit

Revolutions

≈ 14.7

Per day

Orbit

SSO

Sun Synchronous Orbit

Inclination

98.2

Latest

Satellite identification and parameters

Extended collection of information and parameters for NOAA 12 DEB.

Object identification

Identified? True

Debris? True

Object name: NOAA 12 DEB

International designator: 1991-032D

Object number (NORAD): 37831

Object ID (CCSDS): 37831

Country: UNITED STATES OF AMERICA (US)

Current information (Y/N): Y

RCS size: MEDIUM

Orbital parameters

Period: 97.712 minutes

Inclination: 98.1727 deg

SMA: 7027.362 km

Apoapsis: 654.266 km

Periapsis: 644.189 km

RAAN: 240.1685 deg

Eccentricy: 0.000717

Argument of periapsis: 350.0318 deg

Mean anomaly: 106.0983 deg

Mean motion: 14.73717506 rev/day

Mean motion (dot): 0.0000893 rev/day2

B* drag term: 0.0013736 1/REarth

Two-line elements (TLE)

Creation date: July 8, 2025, 2:27 a.m.

Reference frame: TEME

Reference center: EARTH

Epoch: July 7, 2025, 9:32 p.m. UTC

TLE line 0: 0 NOAA 12 DEB

TLE line 1: 1 37831U 91032D 25188.89767031 .00008930 00000-0 13736-2 0 9994

TLE line 2: 2 37831 98.1727 240.1685 0007170 350.0318 106.0983 14.73717506724662

Live tracking on map

Real-time ground track for satellite NOAA 12 DEB.

In-orbit conjunctions

A list of the most updated potential collisions computed for object NOAA 12 DEB.

Target Orbit TCA Probability of collision Miss distance Type
COSMOS 2251 DEB LEO 2024-10-31 23:32:34 0.000212384 75.0 (m) DEBRIS

Associated space launch

Fourth generation NOAA meteorological satellite

NOAA 12 DEB was lifted into orbit during the mission ‘Atlas E | NOAA 12’, on board a Atlas E space rocket.

The launch took place on May 14, 1991, 3:52 p.m. from Space Launch Complex 3W.

For more information about the launch, click the button.

Launch to space Atlas E | NOAA 12
Atlas E | NOAA 12

Agency: N/A

Status: Launch Successful

Launch date: May 14, 1991, 3:52 p.m. UTC

Rocket: Atlas E

Launch pad: Space Launch Complex 3W

Location: Vandenberg SFB, CA, USA

...

Latest news about this satellite

There are no fresh news available about this satellite. Check back as we update our databases every day.


Newsletter sign-up

Weekly statistics, charts and insights to help you stay on top of the space industry.